Location: Alt?nova Orta
(36.9295°N, 30.7847°E)
Time: 23:08:56
(UTC+00:00)

Cosmos 1727 Rocket - Pass Details

Date: 17 February 2020
Orbit: 962 x 995 km, 82.9° (Epoch: 05 April)

Event Time Altitude Azimuth Distance (km) Brightness Sun altitude
Rises 02:42:44 0° 181° (S) 3,654 7.0 -24.9°
Reaches altitude 10° 02:45:14 10° 179° (S) 2,706 6.3 -24.4°
Maximum altitude 02:51:25 78° 95° (E) 990 4.0 -23.1°
Drops below altitude 10° 02:57:36 10° 9° (N) 2,706 6.4 -21.9°
Sets 03:00:06 0° 9° (N) 3,655 7.1 -21.4°
